Погода Карасу

Погода Карасу : погода сейчас, прогноз погоды и архив. Всё, что Вы хотите узнать о погоде Карасу!

Поиск расширенной информации на нашем сайте:

Полезная информация: Аренда помещения в краснодаре под хостел недорого.

Другие новости

Новости СМИ2

Главная страница сайта

Новости сайта

03.07.2017

Напоминаем, что на нашем специализированном сайте Метеоцентр.Азия вы можете получить высокодетализированные автоматические прогнозы погоды по пунктам России, СНГ и мира в авиационном формате (включающие направление и скорость ветра, видимость, явления погоды, количество и форму облачности, нижнюю и верхнюю границу облачности).

Рекомендуем: Самая подробная информация пояс верности силиконовый у нас.

Погода Карасу - сегодня

Время (UTC), дата Ветер
(°,м/с) 
Видим.   Явления Облачность Т
(°С)
Тd
(°С)
f(%) Тe
(°С)
Pmin
(гПа)
dP
(гПа)
Po
(мм)
O2
(г/м3)
Тmin Tmax R s Состояние
почвы
21 23.07.17 090 (В) н/о    1/1 600 м кучево-дожд. 
[Cb calv]
+20.8 +11.4 55 +26  1006.4  684  254           
00 24.07.17 090 (В) 20000 м    3/3 600 м кучево-дожд. 
[Cb calv]
+19.2 +9.8 54 +23  1006.1  -0.8  683  255           
03 24.07.17 020 (С) 20000 м    1/1 600 м 
[Sc]
+25.7 +13.7 47 +32  1003.7  -0.1  750  274           
06 24.07.17 020 (С) 20000 м    3/3 600 м кучево-дожд. 
[Cb calv]
+31.3 +11.2 29 +36  1001.2  -0.8  682  245  +18.4         
09 24.07.17 340 (С) 20000 м    3/3 600 м кучево-дожд. 
[Cb calv]
+32.9 +9.9 24 +36  999.6  -1  682  243           
12 24.07.17 340 (С) 20000 м    3/3 600 м кучево-дожд. 
[Cb calv]
+33.7 +12.5 28 +41  999.1  -0.1  682  242           
15 24.07.17 140 (ЮВ) 20000 м    3/3 600 м кучево-дожд. 
[Cb calv]
+23.5 +18.4 73 +42  1002  -0.1  681  248    +34.1       
18 24.07.17 140 (ЮВ) н/о    3/1 600 м верхняя 
[Sc|Ci fib]
+22.4 +11.3 49 +27  1003.1  0.4  682  252    +34.1       
21 24.07.17 140 (ЮВ) н/о    1/0 верхняя 
[Ci fib]
+22.2 +11.9 52 +28  1003.2  682  252           
00 25.07.17 090 (В) 20000 м    1/1 600 м 
[Sc]
+20.4 +9.5 50 +23  1003.4  -0.4  681  254           
03 25.07.17 360 (С) 20000 м    1/0 
+26.7 +15.8 51 +37  1001.9  -0.8  750  272           
06 25.07.17 360 (С) 20000 м    1/1 600 м кучево-дожд. 
[Cb calv]
+31.5 +11.5 29 +37  999.2  -1.2  681  244  +19         
09 25.07.17 340 (С) 20000 м    1/1 600 м кучево-дожд. 
[Cb calv]
+34.1   997.2  -1.2  680             
12 25.07.17 270 (З) 20000 м    1/0 кучево-дожд. 
[Cb calv]
+34.1 +11.7 26 +40  997  -0.2  680  241           
15 25.07.17 090 (В) 20000 м    1/1 600 м кучево-дожд. 
[Cb calv]
+23.5 +17 67 +39  1000.5  0.5  680  249    +34.8       
18 25.07.17 090 (В) н/о    ясно 
+21.6 +12.4 56 +28  1001.8  0.3  681  252    +34.8       
21 25.07.17 180 (Ю) н/о    ясно 
+22.6 +11.1 48 +27  1001.2  -0.2  681  251           
00 26.07.17 090 (В) 20000 м    ясно 
+19.2 +11.5 61 +26  1002.9  0.5  688  257           
03 26.07.17 070 (В) 20000 м    ясно 
+26.9 +15.4 49 +39  1000.7  0.4  681  247           
06 26.07.17 020 (С) 20000 м    1/1 600 м 
[Cu med, cong]
+32.5 +11.3 27 +38  998.5  -0.5  679  242  +18.5         
09 26.07.17 340 (С) 20000 м    1/1 600 м кучево-дожд. 
[Cb calv]
+35.5 +12.2 25 +42  997.1  -0.4  681  240           
12 26.07.17 360 (С) 20000 м    1/1 600 м кучево-дожд. 
[Cb calv]
+35.9 +8.5 19 +37  997.1  681  241           
15 26.07.17 180 (Ю) 20000 м    1/1 600 м 
[Sc diur, vesp]
+23.7 +18.8 74 +43  1000.7  0.1  681  248    +36.6       
18 26.07.17 160 (Ю) н/о    ясно 
+23.9 +12 47 +30  1001.5  0.6  681  250    +36.6       
21 26.07.17 070 (В) н/о    ясно 
+21 +11.1 53 +26  1001.6  -0.8  680  252           
Время (UTC), дата Ветер
(°,м/с) 
Видим.   Явления Облачность Т
(°С)
Тd
(°С)
f(%) Тe
(°С)
Pmin
(гПа)
dP
(гПа)
Po
(мм)
O2
(г/м3)
Тmin Tmax R s Состояние
почвы

Для получения пояснительной информации подведите курсор к названию столбца.

ПОГОДА Карасу - архив

Всё, что Вы хотите узнать о погоде Карасу - удобно и подробно!

Выберите нужную дату (начиная с 1 января 2015* года) и нажмите кнопку "Найти".
Будут отображены архивные сводки погоды по пункту Карасу, начиная с указанной даты.


Отображать данные в формате CSV (для использования в таблицах Excel)


Внимание! Наш архив погоды предназначен исключительно для личного некоммерческого использования в познавательных целях. Если Вам необходимы официальные справки о состоянии погоды (для производственных, юридических, коммерческих и т.п. целей), обращайтесь в органы Росгидромета.

*Примечание: данная дата относится к архиву по метеостанциям СССР (Россия, СНГ, Балтия).
Архив по метеостанциям Зарубежной Европы и Азии (кроме Китая) хранится 10 дней, по другим регионам земного шара (Китай, Африка, Америка, Австралия, Океания) - 1 день.

Карасу - район местоположения метеостанции


Название, широта, долгота, высота метеостанции:
Карасу 40.7°ш. 72.9°д. 865 м над ур. моря [Кыргызстан]

Дополнительная информация

В oтличие oт бoльшинства пoгoдных сайтoв мы публикуем пoдрoбную метеoинфoрмацию в детальнoм прoфессиoнальнoм фoрмате.

Характеристики температуры и влажнoсти вoздуха измеряются на высoте 2 м в тени вдали oт зданий и деревьев.
Скoрoсть ветра измеряется на высoте 10 м (на урoвне рoста челoвека скoрoсть ветра ниже в 1.5-2 раза). Если метеoстанция нахoдится в гoрoде или в лесу, тo скoрoсть ветра занижена на 2-4 м/с пo сравнению с oткрытым местoм. Скoрoсть ветра над акватoриями крупных рек и oзёр, а также на вершинах хoлмoв на 2-5 м/с выше, чем в oбычных услoвиях.
Атмoсфернoе давление в разных тoчках местнoсти мoжет значительнo oтличаться oт давления на метеoстанции, в зависимoсти oт услoвий рельефа (при пoдъёме на 10 м давление пoнижается примернo на 1 мм рт.ст.).